Flag for United Kingdom Weather past 2 weeks in Worcester, England, United Kingdom

Now
56 °F

Cool.


Feels Like: 53 °F
Forecast: 42 / 60 °F
Wind: 12 mph from Northwest

Location: Pershore

Current Time: May 29, 2015 at 3:48:49 PM

Latest Report: May 29, 2015 at 3:00 PM


Visibility: 31 mi

Pressure: 29.72 "Hg

Humidity: 84%

Dew point: 51 °F

Location of WorcesterLocation

Historic Weather in Worcester — Graph

°F

Worcester temperature yesterday

Maximum temperature yesterday: 61 °F (at 3:00 PM)
Minimum temperature yesterday: 48 °F (at 6:00 AM)
Average temperature yesterday: 55 °F

Past Weeks' High & Low Weather Summary

 TemperatureHumidityPressure
High69 °F (May 22, 6:00 PM)100% (May 27, 6:00 AM)30.38 "Hg (May 27, 6:00 AM)
Low36 °F (May 27, 5:00 AM)41% (May 28, 5:00 PM)29.57 "Hg (May 19, 4:00 AM)
Average53 °F75%30.10 "Hg
* Reported May 14 2:00 PM — May 29 2:00 PM, Worcester, Weather by CustomWeather, © 2015

Note: Actual official high and low records may vary slightly from our data, if they occured in-between our weather recording intervals... More about our weather records

Advertising

Worcester weather history for previous 24 hours

 ConditionsComfort  
Time TempWeatherWind HumidityBarometerVisibility
2:00 PM
Fri, May 29
51 °FLots of rain. Cloudy.10 mph86%29.71 "Hg25 mi
1:00 PM53 °FCool.10 mph88%29.69 "Hg31 mi
11:00 AM48 °FCool.6 mph94%29.67 "Hg22 mi
10:00 AM49 °FRain. Cloudy.15 mph97%29.69 "Hg1 mi
9:00 AM50 °FRain showers. Cloudy.16 mph88%29.67 "Hg10 mi
8:00 AM51 °FCool.13 mph83%29.72 "Hg12 mi
7:00 AM50 °FCool.10 mph82%29.76 "Hg16 mi
6:00 AM49 °FCool.9 mph84%29.78 "Hg18 mi
5:00 AM49 °FCool.7 mph85%29.81 "Hg14 mi
4:00 AM49 °FCool.6 mph82%29.84 "Hg15 mi
3:00 AM49 °FCool.7 mph80%29.86 "Hg19 mi
2:00 AM49 °FCool.7 mph79%29.89 "Hg25 mi
1:00 AM49 °FCool.8 mph77%29.91 "Hg19 mi
12:00 AM50 °FCool.6 mph74%29.93 "Hg22 mi
9:00 PM
Thu, May 28
54 °FCool.6 mph54%29.94 "Hg31 mi
8:00 PM58 °FRefreshingly cool.8 mph49%29.95 "Hg31 mi
7:00 PM59 °FRefreshingly cool.9 mph45%29.95 "Hg25 mi
6:00 PM60 °FRefreshingly cool.14 mph41%29.96 "Hg28 mi
5:00 PM60 °FRefreshingly cool.15 mph41%29.97 "Hg19 mi
4:00 PM60 °FRefreshingly cool.14 mph42%29.97 "Hg22 mi
3:00 PM61 °FRefreshingly cool.13 mph43%29.98 "Hg28 mi
Weather by CustomWeather, © 2015

See weather overviewHow to use our weather pages